Showing default

FLOCK 4G 28, 62634

Orbit data source: Space-Track

FLOCK 4G 28, 62634 is a payload satellite owned by Planet (US) in SSO that was launched on Tue, 14 Jan 2025 UTC via an FALCON 9 launch vehicle from the Air Force Western Test Range (AFWTR). Payload-class satellites include a variety of spacecraft equipped with specific instruments for various scientific and technological missions. These include communications satellites like Starlink; space stations such as the ISS; scientific satellites like the Hubble; Earth observation satellites from companies like Planet Labs, Umbra, and HawkEye 360; GPS; miniature CubeSats for education and research; and military/defense satellites.

Loading next visibility...
Identifier
62634, 2025-009AB
Orbit
SSO
Country
Flag of USUS
Related business
Manufacturer
Planet
Mission
Operational Commercial Imaging
Bus & Motor
CUBESAT 3U, Unknown motor
Mass
5.7 kg wet, 5.7 kg dry
Launch date (UTC)
2025-01-14 (1 year ago)
Launch vehicle
FALCON 9
Launch site
Air Force Western Test Range (AFWTR)
Object type
Payload
Rocket body
Debris
Shape & HBR
Box + 2 Pan, 1.0 m
Radar Cross Section
0.072 m², Medium (>0.1 m² and < 1m²)

Expand to show TLE details & history
Last TLE update: 1 day ago

TLE from 1 day ago
0 FLOCK 4G 28
1 62634U 25009AB  26067.53389352  .00013789  00000-0  43395-3 0  9991
2 62634  97.4055 151.8260 0000987 352.4848   7.6379 15.33058093 63653
Epoch: 2026-03-08T12:48Z
TLE epoch observation values (Epoch: 2026-03-08T12:48:48.400Z)
Latitude
-0.00002°
Longitude
153.38452°
Altitude
469.133 km
Speed
7.632 km/s
True Right ascension
10h 07m 18s
True Declination
0° 00' 00"
Sunlit
Object was in full shadow at epoch
Visualization orbit readout
Latitude
Unknown
Longitude
Unknown
Altitude
Unknown
Speed
Unknown
Apparent Right ascension
Unknown
Apparent Declination
Unknown
Sunlit
N/A
Visualization observer readout
Local Sidereal Time
19:01:07
Azimuth
Unknown
Elevation
Unknown
Doppler factor
Unknown
Orbital elements
Apogee altitude
464.318 km
Perigee altitude
462.968 km
Semi-major axis
6,841.78 km
Eccentricity
0.0001
Inclination
97.4055°
RAAN
151.826°
Arg. of periapsis
352.4848°
True anomaly
7.6394°
Mean anomaly
7.6379°
Eccentric anomaly
7.63865°
Mean motion
3.83521 °/min
Orbital period
93.87 mins
BSTAR
0.00043395
Loading maneuver chart data...
Computing Atmospheric mass density...
Loading historical data...
Loading historical data...
Loading historical data...
Loading historical data...
Loading historical data...
Loading historical data...
Loading historical data...

Documentation

Showing up to 5 results
|